KC6UTR Weather Reports


time (UTC)temp
F
wind
direction
speed
knots
gust
knots
rain 1hr
in
rain 24hr
in
rain mn
in
humidity
%
barometer
mb
20260507085515 53 0.0 0.0 0.00 0.00 0.00 46 1019.1
20260507084535 54 0.0 0.0 0.00 0.00 0.00 45 1019.0
20260507083615 54 0.0 0.0 0.00 0.00 0.00 45 1019.0
20260507082515 54 0.0 0.0 0.00 0.00 0.00 45 1019.4
20260507081515 54 0.0 0.0 0.00 0.00 0.00 45 1019.4
20260507080515 54 0.0 0.0 0.00 0.00 0.00 45 1018.8
20260507075517 54 0.0 0.0 0.00 0.00 0.00 45 1018.7
20260507074517 55 0.0 0.0 0.00 0.00 0.00 44 1018.6
20260507073517 55 0.0 0.0 0.00 0.00 0.00 44 1018.9
20260507072517 55 0.0 0.0 0.00 0.00 0.00 44 1019.0
20260507071537 55 0.0 0.0 0.00 0.00 0.00 44 1018.9
20260507070537 55 0.0 0.0 0.00 0.00 0.00 44 1018.7
20260507065516 55 0.0 0.0 0.00 0.00 0.00 43 1018.6
20260507064516 55 0.0 0.0 0.00 0.00 0.00 43 1018.5
20260507063516 55 0.0 0.0 0.00 0.00 0.00 43 1018.2
20260507062516 56 0.0 0.0 0.00 0.00 0.00 42 1018.1
20260507061516 56 0.0 0.0 0.00 0.00 0.00 42 1018.1
20260507060536 57 0.0 0.0 0.00 0.00 0.00 41 1018.0
20260507055517 58 0.0 0.0 0.00 0.00 0.00 40 1018.0
20260507054536 58 0.0 0.0 0.00 0.00 0.00 39 1018.2
20260507053516 59 0.0 0.0 0.00 0.00 0.00 39 1017.9
20260507052516 59 0.0 0.0 0.00 0.00 0.00 37 1017.7
20260507051517 60 0.0 0.0 0.00 0.00 0.00 37 1017.9
20260507050516 60 0.0 0.0 0.00 0.00 0.00 36 1017.5
20260507045516 61 0.0 0.0 0.00 0.00 0.00 35 1017.7
20260507044537 62 0.0 0.0 0.00 0.00 0.00 33 1017.6
20260507043516 62 0.0 0.0 0.00 0.00 0.00 32 1017.3
20260507042516 63 0.0 0.0 0.00 0.00 0.00 33 1017.5
20260507041516 64 0.0 0.0 0.00 0.00 0.00 31 1017.3
20260507040516 64 0.0 0.0 0.00 0.00 0.00 30 1017.2
20260507035516 65 0.0 0.0 0.00 0.00 0.00 30 1017.4
20260507034516 66 0.0 0.0 0.00 0.00 0.00 29 1017.3
20260507033516 66 0.0 0.0 0.00 0.00 0.00 29 1016.8
20260507032516 66 0.0 0.0 0.00 0.00 0.00 29 1016.7
20260507031516 66 0.0 0.0 0.00 0.00 0.00 28 1016.6
20260507030516 67 0.0 0.0 0.00 0.01 0.00 27 1016.0
20260507025516 68 0.0 0.0 0.00 0.02 0.00 27 1015.9
20260507024516 68 0.0 1.7 0.00 0.06 0.00 26 1015.6
20260507023516 69 0.0 2.6 0.00 0.09 0.00 25 1015.1
20260507022516 70 203 0.9 1.7 0.00 0.10 0.00 25 1015.3
20260507021515 71 225 0.9 7.8 0.00 0.10 0.00 23 1015.1
20260507020516 72 225 0.9 7.0 0.00 0.10 0.00 22 1014.6
20260507015536 73 203 0.9 8.7 0.00 0.10 0.00 21 1014.8
20260507014515 74 225 1.7 8.7 0.00 0.10 0.00 21 1014.8
20260507013515 75 225 3.5 12.2 0.00 0.10 0.00 20 1014.3
20260507012535 76 203 0.9 4.3 0.00 0.10 0.00 19 1014.2
20260507011516 76 0.0 0.0 0.00 0.10 0.00 19 1014.2
20260507010516 76 248 1.7 6.1 0.00 0.10 0.00 18 1013.9
20260507005515 77 248 0.9 6.1 0.00 0.10 0.00 18 1014.1
20260507004516 77 0.0 1.7 0.00 0.10 0.00 18 1014.2
20260507003516 77 0.0 4.3 0.00 0.10 0.00 18 1014.2
20260507002515 78 248 0.9 7.0 0.00 0.10 0.00 18 1014.4
20260507001515 77 248 0.9 4.3 0.00 0.10 0.00 19 1014.1
20260507000515 77 180 0.9 4.3 0.00 0.10 0.00 19 1014.2
20260506235515 76 293 0.9 6.1 0.00 0.10 0.00 20 1014.2
20260506234515 77 248 0.9 6.1 0.00 0.10 0.00 19 1014.1
20260506233515 78 180 1.7 6.1 0.00 0.10 0.00 19 1014.4
20260506232515 76 0.0 1.7 0.00 0.10 0.00 20 1014.1
20260506231516 76 270 0.9 6.1 0.00 0.10 0.00 19 1014.4
20260506230535 76 0.0 1.7 0.00 0.10 0.00 19 1014.5
20260506225515 77 248 0.9 3.5 0.00 0.10 0.00 19 1014.4
20260506224515 76 225 0.9 11.3 0.00 0.10 0.00 20 1014.6
20260506223515 76 270 0.9 5.2 0.00 0.10 0.00 20 1014.7
20260506222515 76 338 0.9 5.2 0.00 0.10 0.00 20 1014.8
20260506221515 77 203 1.7 11.3 0.00 0.10 0.00 20 1015.0
20260506220517 75 0.0 5.2 0.00 0.10 0.00 20 1015.3
20260506215517 74 180 0.9 6.1 0.00 0.10 0.00 21 1015.5
20260506214517 75 0.0 0.9 0.00 0.10 0.00 21 1015.7
20260506213517 74 315 0.9 6.1 0.00 0.10 0.00 21 1015.7
20260506212517 74 180 1.7 8.7 0.00 0.10 0.00 22 1016.0
20260506211517 73 0.0 3.5 0.00 0.10 0.00 22 1015.8
20260506210517 73 315 1.7 12.2 0.00 0.10 0.00 22 1015.9
20260506205517 72 293 2.6 11.3 0.00 0.10 0.00 23 1016.1
20260506204517 72 248 0.9 7.8 0.00 0.10 0.00 24 1016.3
20260506203637 72 293 0.9 5.2 0.00 0.10 0.00 24 1016.5
20260506202517 72 270 0.9 9.6 0.00 0.10 0.00 23 1016.4
20260506201517 73 225 0.9 6.1 0.00 0.10 0.00 23 1016.8
20260506200515 73 180 0.9 2.6 0.00 0.10 0.00 24 1016.6
20260506195517 72 180 3.5 10.4 0.00 0.10 0.00 24 1016.8
20260506194517 71 203 0.9 3.5 0.00 0.10 0.00 26 1016.9
20260506193537 69 225 0.9 7.0 0.00 0.10 0.00 26 1016.8
20260506192517 69 248 2.6 10.4 0.00 0.10 0.00 27 1016.8
20260506191557 68 248 0.9 7.0 0.00 0.10 0.00 27 1016.9
20260506190517 69 225 0.9 1.7 0.00 0.10 0.00 28 1017.6
20260506185517 68 225 0.9 7.0 0.00 0.10 0.00 28 1017.4
20260506184517 68 0.0 1.7 0.00 0.10 0.00 28 1017.4
20260506183517 69 203 1.7 6.1 0.00 0.10 0.00 29 1017.6
20260506182517 66 0.0 0.9 0.00 0.10 0.00 31 1017.4
20260506181517 66 0.0 2.6 0.00 0.10 0.00 31 1017.5
20260506180516 65 0.0 1.7 0.00 0.10 0.00 31 1017.5
20260506175516 65 248 0.9 4.3 0.00 0.10 0.00 31 1017.6
20260506174516 64 225 0.9 7.0 0.00 0.10 0.00 32 1017.6
20260506173516 64 0.0 0.0 0.00 0.10 0.00 32 1017.6
20260506172517 64 248 0.9 3.5 0.00 0.10 0.00 34 1017.8
20260506171517 63 270 0.9 7.8 0.00 0.10 0.00 34 1017.7
20260506170517 62 248 0.9 7.0 0.00 0.10 0.00 34 1017.7
20260506165517 63 0.0 0.9 0.00 0.10 0.00 33 1017.8
20260506164516 63 0.0 2.6 0.00 0.10 0.00 36 1017.7
20260506163537 61 0.0 2.6 0.00 0.10 0.00 37 1017.4
20260506162517 61 0.0 1.7 0.00 0.10 0.00 38 1017.5
20260506161537 60 0.0 0.0 0.00 0.10 0.00 39 1017.5
20260506160516 60 0.0 0.0 0.00 0.10 0.00 40 1017.1
20260506155517 59 0.0 0.0 0.00 0.10 0.00 41 1017.2
20260506154516 60 0.0 0.0 0.00 0.10 0.00 40 1017.1
20260506153557 59 0.0 0.0 0.00 0.10 0.00 40 1017.6
20260506152536 58 0.0 0.0 0.00 0.10 0.00 41 1017.1
20260506151516 57 0.0 0.0 0.00 0.10 0.00 44 1017.1
20260506150536 56 0.0 0.0 0.00 0.10 0.00 45 1016.8
20260506145516 55 0.0 0.9 0.00 0.10 0.00 50 1017.1
20260506144536 54 0.0 3.5 0.00 0.10 0.00 50 1016.8
20260506143516 53 0.0 0.0 0.00 0.10 0.00 51 1016.7
20260506142516 52 0.0 0.0 0.00 0.10 0.00 56 1017.0
20260506141516 51 0.0 0.0 0.00 0.10 0.00 56 1016.7
20260506140516 50 0.0 0.0 0.00 0.10 0.00 58 1016.6
20260506135516 50 0.0 0.0 0.00 0.10 0.00 59 1016.5
20260506134516 49 0.0 0.0 0.00 0.10 0.00 61 1016.2
20260506133516 47 0.0 0.0 0.00 0.10 0.00 64 1015.9
20260506132516 45 0.0 0.0 0.00 0.10 0.00 67 1015.6
20260506131516 44 0.0 0.0 0.00 0.10 0.00 71 1015.2
20260506130516 43 0.0 0.0 0.00 0.10 0.00 74 1015.0
20260506125516 42 0.0 0.0 0.00 0.10 0.00 75 1014.9
20260506124516 42 0.0 0.0 0.00 0.10 0.00 75 1014.5
20260506123516 41 0.0 0.0 0.00 0.10 0.00 75 1014.3
20260506122516 42 0.0 0.0 0.00 0.10 0.00 77 1014.3
20260506121516 42 0.0 0.0 0.00 0.10 0.00 76 1014.4
20260506120516 42 0.0 0.0 0.00 0.10 0.00 76 1014.3
20260506115536 42 0.0 0.0 0.00 0.10 0.00 75 1014.8
20260506114516 42 0.0 0.0 0.00 0.10 0.00 74 1014.8
20260506113516 42 0.0 0.0 0.00 0.10 0.00 75 1014.9
20260506112516 42 0.0 0.0 0.00 0.10 0.00 76 1014.7
20260506111516 42 0.0 0.0 0.00 0.10 0.00 75 1014.5
20260506110516 42 0.0 0.0 0.00 0.10 0.00 77 1014.3
20260506105516 42 0.0 0.0 0.00 0.10 0.00 76 1014.2
20260506104516 42 0.0 0.0 0.00 0.10 0.00 75 1014.2
20260506103516 43 0.0 0.0 0.00 0.10 0.00 76 1014.1
20260506102516 43 0.0 0.9 0.00 0.10 0.00 75 1014.7
20260506101516 43 0.0 0.0 0.00 0.10 0.00 75 1014.6
20260506100535 43 0.0 0.9 0.00 0.10 0.00 76 1014.5
20260506095516 43 0.0 0.0 0.00 0.10 0.00 76 1014.4
20260506094516 44 0.0 1.7 0.00 0.10 0.00 77 1014.3
20260506093516 44 0.0 0.0 0.00 0.10 0.00 75 1014.5
20260506092535 44 0.0 0.0 0.00 0.10 0.00 74 1014.5
20260506091515 44 0.0 0.0 0.00 0.10 0.00 74 1014.3
20260506090516 44 0.0 0.0 0.00 0.10 0.00 77 1014.2